GLT6 KTEX-KAPA

Flight info

Callsign GLT6
Flight time 0h 36m
Altitude 27000
Route STIFS ZOMBZ6
Aircraft E45X/M-SABDFGRW/S

Departure

Time 2026-05-04 04:37
Airport Telluride Regional Airport (KTEX)

Arrival

Time 2026-05-04 05:13
Airport Centennial Airport (KAPA)
Time Latitude Longitude Altitude Speed Heading
2026-05-04 04:27 37.95404 -107.90123 9082 ft 0 kts 195°
2026-05-04 04:32 37.95379 -107.90131 9079 ft 6 kts 195°
2026-05-04 04:32 37.95334 -107.90105 9076 ft 8 kts 113°
2026-05-04 04:33 37.95318 -107.90042 9078 ft 6 kts 105°
2026-05-04 04:33 37.95308 -107.89995 9080 ft 5 kts 104°
2026-05-04 04:33 37.95301 -107.89960 9083 ft 1 kts 103°
2026-05-04 04:33 37.95300 -107.89952 9083 ft 3 kts 103°
2026-05-04 04:34 37.95286 -107.89885 9089 ft 8 kts 105°
2026-05-04 04:34 37.95274 -107.89834 9092 ft 3 kts 106°
2026-05-04 04:34 37.95260 -107.89773 9096 ft 9 kts 105°
2026-05-04 04:34 37.95248 -107.89721 9100 ft 3 kts 105°
2026-05-04 04:35 37.95235 -107.89681 9102 ft 5 kts 132°
2026-05-04 04:35 37.95184 -107.89673 9099 ft 10 kts 193°
2026-05-04 04:35 37.95143 -107.89688 9094 ft 4 kts 215°
2026-05-04 04:35 37.95136 -107.89714 9091 ft 0 kts 281°
2026-05-04 04:36 37.95137 -107.89718 9090 ft 8 kts 282°
2026-05-04 04:36 37.95229 -107.90151 9063 ft 90 kts 285°
2026-05-04 04:36 37.95451 -107.91201 9021 ft 154 kts 284°
2026-05-04 04:36 37.95769 -107.92648 9258 ft 179 kts 285°
2026-05-04 04:37 37.96832 -107.97575 11265 ft 204 kts 283°
2026-05-04 04:37 37.97198 -107.99289 12102 ft 204 kts 282°
2026-05-04 04:38 37.97569 -108.01039 12801 ft 211 kts 282°
2026-05-04 04:38 37.97981 -108.02875 13412 ft 224 kts 284°
2026-05-04 04:38 37.98429 -108.04763 14237 ft 224 kts 283°
2026-05-04 04:38 37.98888 -108.06654 14894 ft 233 kts 285°
2026-05-04 04:39 37.99643 -108.08489 15564 ft 245 kts 309°
2026-05-04 04:39 38.01037 -108.09734 16371 ft 252 kts 335°
2026-05-04 04:39 38.02721 -108.10134 17263 ft 248 kts 358°
2026-05-04 04:39 38.04438 -108.09675 17702 ft 264 kts 22°
2026-05-04 04:40 38.05866 -108.08115 17882 ft 289 kts 59°
2026-05-04 04:40 38.06507 -108.05694 18374 ft 295 kts 84°
2026-05-04 04:40 38.06647 -108.03092 18991 ft 296 kts 88°
2026-05-04 04:40 38.06768 -108.00483 19571 ft 301 kts 85°
2026-05-04 04:41 38.07099 -107.97800 19904 ft 316 kts 78°
2026-05-04 04:41 38.07543 -107.95049 20334 ft 325 kts 79°
2026-05-04 04:41 38.07982 -107.92156 20628 ft 340 kts 79°
2026-05-04 04:41 38.08451 -107.89216 21122 ft 346 kts 78°
2026-05-04 04:42 38.08896 -107.86163 21420 ft 361 kts 79°
2026-05-04 04:42 38.09369 -107.82954 21684 ft 374 kts 79°
2026-05-04 04:42 38.09871 -107.79739 22226 ft 378 kts 78°
2026-05-04 04:42 38.10387 -107.76402 22556 ft 390 kts 78°
2026-05-04 04:43 38.10928 -107.72982 22828 ft 401 kts 78°
2026-05-04 04:43 38.11436 -107.69521 23324 ft 406 kts 79°
2026-05-04 04:43 38.11992 -107.65956 23853 ft 409 kts 78°
2026-05-04 04:43 38.12532 -107.62423 24426 ft 412 kts 78°
2026-05-04 04:44 38.13082 -107.58828 24612 ft 426 kts 78°
2026-05-04 04:44 38.13655 -107.55072 24797 ft 437 kts 78°
2026-05-04 04:44 38.14238 -107.51244 25313 ft 440 kts 78°
2026-05-04 04:44 38.14819 -107.47424 25755 ft 445 kts 78°
2026-05-04 04:45 38.15400 -107.43587 26087 ft 451 kts 78°
2026-05-04 04:45 38.15993 -107.39666 26557 ft 454 kts 78°
2026-05-04 04:45 38.16586 -107.35731 27078 ft 456 kts 78°
2026-05-04 04:47 38.20331 -107.10700 27143 ft 497 kts 79°
2026-05-04 04:47 38.20972 -107.06377 27134 ft 501 kts 79°
2026-05-04 04:47 38.21608 -107.02074 27132 ft 495 kts 79°
2026-05-04 04:47 38.22239 -106.97794 27131 ft 493 kts 79°
2026-05-04 04:48 38.22860 -106.93564 27129 ft 491 kts 79°
2026-05-04 04:49 38.25336 -106.76627 27314 ft 482 kts 78°
2026-05-04 04:49 38.25940 -106.72462 27323 ft 483 kts 78°
2026-05-04 04:49 38.26548 -106.68259 27324 ft 485 kts 78°
2026-05-04 04:49 38.27157 -106.64047 27315 ft 488 kts 78°
2026-05-04 04:50 38.27769 -106.59794 27313 ft 491 kts 78°
2026-05-04 04:50 38.28384 -106.55514 27310 ft 494 kts 78°
2026-05-04 04:50 38.29002 -106.51193 27306 ft 497 kts 78°
2026-05-04 04:50 38.29624 -106.46845 27303 ft 499 kts 78°
2026-05-04 04:51 38.30247 -106.42467 27295 ft 502 kts 78°
2026-05-04 04:51 38.30863 -106.38125 27301 ft 504 kts 78°
2026-05-04 04:51 38.31486 -106.33725 27286 ft 506 kts 78°
2026-05-04 04:51 38.32125 -106.29208 27281 ft 507 kts 78°
2026-05-04 04:52 38.32747 -106.24789 27278 ft 506 kts 78°
2026-05-04 04:52 38.33371 -106.20342 27279 ft 505 kts 78°
2026-05-04 04:52 38.33987 -106.15946 27260 ft 504 kts 78°
2026-05-04 04:52 38.34594 -106.11610 27245 ft 503 kts 78°
2026-05-04 04:53 38.35454 -106.07290 27235 ft 499 kts 69°
2026-05-04 04:53 38.36762 -106.03227 27229 ft 495 kts 60°
2026-05-04 04:53 38.38493 -105.99469 27218 ft 490 kts 52°
2026-05-04 04:53 38.40360 -105.95912 27216 ft 487 kts 50°
2026-05-04 04:54 38.42570 -105.92640 27222 ft 481 kts 40°
2026-05-04 04:54 38.45054 -105.89896 27223 ft 474 kts 31°
2026-05-04 04:54 38.47831 -105.87645 27214 ft 467 kts 23°
2026-05-04 04:54 38.50712 -105.85809 27213 ft 467 kts 24°
2026-05-04 04:55 38.53476 -105.83566 27232 ft 469 kts 30°
2026-05-04 04:55 38.56136 -105.81207 27248 ft 469 kts 30°
2026-05-04 04:55 38.58835 -105.78777 27258 ft 469 kts 30°
2026-05-04 04:55 38.61491 -105.76369 27264 ft 468 kts 30°
2026-05-04 04:56 38.64120 -105.73983 27262 ft 468 kts 31°
2026-05-04 04:56 38.66763 -105.71579 27265 ft 468 kts 30°
2026-05-04 04:56 38.69430 -105.69152 27268 ft 468 kts 30°
2026-05-04 04:56 38.72080 -105.66738 26979 ft 465 kts 30°
2026-05-04 04:57 38.74687 -105.64362 26569 ft 463 kts 31°
2026-05-04 04:57 38.77293 -105.61983 26162 ft 460 kts 31°
2026-05-04 04:57 38.79897 -105.59605 25755 ft 458 kts 31°
2026-05-04 04:57 38.82494 -105.57231 25342 ft 456 kts 31°
2026-05-04 04:58 38.85048 -105.54892 24934 ft 454 kts 31°
2026-05-04 04:58 38.87578 -105.52574 24443 ft 445 kts 31°
2026-05-04 04:58 38.90095 -105.50267 23928 ft 436 kts 31°
2026-05-04 04:58 38.92535 -105.48028 23428 ft 427 kts 31°
2026-05-04 04:59 38.94945 -105.45815 22913 ft 420 kts 31°
2026-05-04 04:59 38.97278 -105.43671 22394 ft 412 kts 31°
2026-05-04 04:59 38.99588 -105.41544 21836 ft 402 kts 31°
2026-05-04 04:59 39.01829 -105.39483 21250 ft 394 kts 32°
2026-05-04 05:00 39.04035 -105.37440 20646 ft 388 kts 33°
2026-05-04 05:00 39.06023 -105.35124 20015 ft 385 kts 40°
2026-05-04 05:00 39.09822 -105.30447 18738 ft 373 kts 41°
2026-05-04 05:01 39.11678 -105.28161 18026 ft 360 kts 41°
2026-05-04 05:01 39.13451 -105.25975 17453 ft 354 kts 41°
2026-05-04 05:01 39.15208 -105.23808 16824 ft 352 kts 41°
2026-05-04 05:01 39.16943 -105.21666 16125 ft 337 kts 41°
2026-05-04 05:02 39.18339 -105.19306 15565 ft 334 kts 63°
2026-05-04 05:02 39.18922 -105.16409 14972 ft 336 kts 86°
2026-05-04 05:02 39.18966 -105.13429 14446 ft 334 kts 88°
2026-05-04 05:02 39.19007 -105.10458 13988 ft 329 kts 88°
2026-05-04 05:03 39.19074 -105.07532 13528 ft 325 kts 82°
2026-05-04 05:03 39.19785 -105.04832 13083 ft 316 kts 57°
2026-05-04 05:04 39.23938 -104.98489 11769 ft 304 kts 47°
2026-05-04 05:04 39.25310 -104.96448 11492 ft 295 kts 47°
2026-05-04 05:04 39.26808 -104.94788 11246 ft 282 kts 24°
2026-05-04 05:06 39.39632 -104.94587 10671 ft 253 kts 356°
2026-05-04 05:06 39.41357 -104.94665 10538 ft 246 kts 356°
2026-05-04 05:06 39.43050 -104.94742 10407 ft 242 kts 356°
2026-05-04 05:07 39.44738 -104.94817 10286 ft 239 kts 356°
2026-05-04 05:07 39.46400 -104.94893 10172 ft 237 kts 355°
2026-05-04 05:07 39.48054 -104.94968 10021 ft 236 kts 356°
2026-05-04 05:09 39.61030 -104.95672 8332 ft 229 kts 355°
2026-05-04 05:09 39.62611 -104.95737 8134 ft 228 kts 360°
2026-05-04 05:10 39.64122 -104.95469 7960 ft 207 kts 14°
2026-05-04 05:10 39.65393 -104.94659 7488 ft 203 kts 38°
2026-05-04 05:10 39.66155 -104.93307 7569 ft 180 kts 72°
2026-05-04 05:10 39.66238 -104.91705 7603 ft 181 kts 94°
2026-05-04 05:11 39.66120 -104.90055 7563 ft 186 kts 100°
2026-05-04 05:11 39.65792 -104.88476 7581 ft 180 kts 114°
2026-05-04 05:11 39.65084 -104.87132 7410 ft 183 kts 136°
2026-05-04 05:11 39.64058 -104.86144 7270 ft 181 kts 154°
2026-05-04 05:12 39.62945 -104.85562 6991 ft 165 kts 164°
2026-05-04 05:12 39.61856 -104.85303 6541 ft 153 kts 178°
2026-05-04 05:12 39.60794 -104.85265 6325 ft 156 kts 176°
2026-05-04 05:12 39.59707 -104.85199 6077 ft 154 kts 179°
2026-05-04 05:13 39.58674 -104.85157 5879 ft 146 kts 177°
2026-05-04 05:13 39.57695 -104.85113 5826 ft 126 kts 178°
2026-05-04 05:13 39.57049 -104.85085 5826 ft 59 kts 177°
2026-05-04 05:13 39.56763 -104.85072 5826 ft 33 kts 178°
2026-05-04 05:14 39.56589 -104.85064 5826 ft 18 kts 177°
2026-05-04 05:14 39.56521 -104.85055 5826 ft 6 kts 155°
2026-05-04 05:14 39.56504 -104.84990 5826 ft 8 kts 90°
2026-05-04 05:14 39.56521 -104.84924 5826 ft 8 kts 24°
2026-05-04 05:15 39.56601 -104.84923 5826 ft 13 kts 358°
2026-05-04 05:15 39.56701 -104.84928 5826 ft 15 kts 358°
2026-05-04 05:15 39.56812 -104.84933 5826 ft 16 kts 358°
2026-05-04 05:15 39.56935 -104.84940 5826 ft 17 kts 358°
2026-05-04 05:16 39.57055 -104.84943 5826 ft 15 kts 358°
2026-05-04 05:16 39.57167 -104.84950 5826 ft 17 kts 357°
2026-05-04 05:16 39.57293 -104.84955 5826 ft 18 kts 358°
2026-05-04 05:16 39.57429 -104.84959 5826 ft 20 kts 358°
2026-05-04 05:17 39.57572 -104.84968 5826 ft 21 kts 357°
2026-05-04 05:17 39.57720 -104.84976 5826 ft 20 kts 359°
2026-05-04 05:17 39.57843 -104.84978 5826 ft 17 kts 358°
2026-05-04 05:17 39.57967 -104.84986 5826 ft 18 kts 358°
2026-05-04 05:18 39.58097 -104.84991 5825 ft 18 kts 358°
2026-05-04 05:18 39.58190 -104.84995 5825 ft 12 kts 357°
2026-05-04 05:18 39.58236 -104.84972 5825 ft 5 kts 81°
2026-05-04 05:18 39.58248 -104.84931 5825 ft 5 kts 34°
2026-05-04 05:19 39.58271 -104.84911 5825 ft 3 kts 82°
2026-05-04 05:19 39.58271 -104.84901 5825 ft 0 kts 86°